This is the latest recevied weather packets stored in our database for station/object KE1THD. If no packets are shown the sender has not sent any weather packets the latest 10 day(s).
| Time | Temp. | Humidity | Pressure | Rain* | Wind** | Luminosity | Snow |
|---|---|---|---|---|---|---|---|
| 1777910513 | 25° C | 43% | 1001 hPa | 0 mm | - | 748 W/m² | - |
| 1777910210 | 24.44° C | 43% | 1001 hPa | 0 mm | - | 774 W/m² | - |
| 1777909907 | 23.89° C | 43% | 1001.3 hPa | 0 mm | - | 792 W/m² | - |
| 1777909604 | 23.89° C | 43% | 1001.1 hPa | 0 mm | - | 788 W/m² | - |
| 1777909302 | 23.89° C | 42% | 1001.5 hPa | 0 mm | - | 778 W/m² | - |
| 1777908999 | 23.33° C | 43% | 1001.4 hPa | 0 mm | - | 766 W/m² | - |
| 1777908697 | 23.33° C | 44% | 1001.4 hPa | 0 mm | - | 722 W/m² | - |
| 1777908394 | 22.78° C | 44% | 1001.6 hPa | 0 mm | - | 656 W/m² | - |
| 1777908090 | 22.78° C | 43% | 1001.4 hPa | 0 mm | - | 620 W/m² | - |
| 1777907786 | 22.78° C | 44% | 1001.6 hPa | 0 mm | - | 649 W/m² | - |
| 1777907481 | 22.78° C | 44% | 1001.6 hPa | 0 mm | - | 667 W/m² | - |
| 1777907179 | 22.78° C | 43% | 1001.7 hPa | 0 mm | - | 657 W/m² | - |
| 1777906875 | 22.22° C | 44% | 1001.7 hPa | 0 mm | - | 654 W/m² | - |
| 1777906573 | 21.67° C | 44% | 1001.9 hPa | 0 mm | - | 637 W/m² | - |
| 1777906268 | 21.67° C | 46% | 1001.8 hPa | 0 mm | - | 630 W/m² | - |
| 1777905964 | 21.67° C | 45% | 1001.9 hPa | 0 mm | - | 622 W/m² | - |
| 1777905661 | 21.11° C | 47% | 1001.8 hPa | 0 mm | - | 630 W/m² | - |
| 1777905359 | 21.11° C | 48% | 1001.9 hPa | 0 mm | - | 598 W/m² | - |
| 1777905056 | 21.11° C | 48% | 1001.9 hPa | 0 mm | - | 585 W/m² | - |
| 1777904753 | 21.11° C | 47% | 1002.1 hPa | 0 mm | - | 567 W/m² | - |
| 1777904450 | 20.56° C | 51% | 1002.1 hPa | 0 mm | - | 536 W/m² | - |
| 1777904147 | 20° C | 51% | 1002.3 hPa | 0 mm | - | 518 W/m² | - |
| 1777903844 | 20° C | 51% | 1002.2 hPa | 0 mm | - | 505 W/m² | - |
| 1777903540 | 19.44° C | 52% | 1002.4 hPa | 0 mm | - | 470 W/m² | - |
| 1777903237 | 18.89° C | 52% | 1002.7 hPa | 0 mm | - | 435 W/m² | - |
* Rain latest hour (hover to see other rain measurements)
** Current wind speed in m/s (hover to see current wind gust speed)